Location: Freemans Gardens
(41.6414°N, 83.6077°W)
Time: 02:40:03
(UTC+00:00)

Cosmos 1300 - Pass Details

Date: 29 October 2020
Orbit: 511 x 513 km, 82.5° (Epoch: 26 November)

Event Time Altitude Azimuth Distance (km) Brightness Sun altitude
Rises 23:22:58 0° 199° (SSW) 2,614 6.7 -10.0°
Reaches altitude 10° 23:25:09 10° 206° (SSW) 1,733 5.9 -10.4°
Maximum altitude 23:28:49 47° 281° (W) 687 3.8 -11.1°
Drops below altitude 10° 23:32:32 10° 356° (N) 1,747 5.3 -11.8°
Sets 23:34:44 0° 2° (N) 2,639 6.2 -12.2°
